Waarnemingen

Advertentie
Mijn weer
Brüssel, België (6451): temperatuur & dauwpunt: 08.08.2018 19:00:00 - 14.08.2018 19:00:00 (CEST)Brüssel, België (6451): windsnelheid & windstoten: 08.08.2018 19:00:00 - 14.08.2018 19:00:00 (CEST)Brüssel, België (6451): windrichting: 08.08.2018 19:00:00 - 14.08.2018 19:00:00 (CEST)Brüssel, België (6451): luchtdruk: 08.08.2018 19:00:00 - 14.08.2018 19:00:00 (CEST)Brüssel, België (6451): zicht: 08.08.2018 19:00:00 - 14.08.2018 19:00:00 (CEST)
Datum & Tijd tt [°C] td [°C] ff [km/u] ff [kn] fx [km/u] fx [kn] dd ppp [hPa] vv [km]
14.08.2018 19:00:00 20,8 12,6 16 9 29 16 WNW 1017,7 10
14.08.2018 18:00:00 20,8 12,9 18 10 29 16 WNW 1017,6 10
14.08.2018 17:00:00 21,5 14,5 21 11 - - WNW 1017,3 10
14.08.2018 16:00:00 20,8 15,5 11 6 22 12 NW 1017,0 10
14.08.2018 15:00:00 20,6 16,6 9 5 14 8 WNW 1016,9 10
14.08.2018 14:00:00 18,7 16,3 4 2 - - W 1010,2 12
14.08.2018 13:00:00 17,3 15,9 11 6 25 14 WNW 1016,5 3,5
14.08.2018 12:00:00 19,8 16,0 15 8 22 12 WZW 1015,8 10
14.08.2018 11:00:00 19,7 15,7 13 7 - - W 1015,3 10
14.08.2018 10:00:00 18,8 16,1 13 7 22 12 W 1015,1 10
14.08.2018 09:00:00 18,2 15,9 13 7 18 10 W 1014,4 8
14.08.2018 08:00:00 17,3 15,5 11 6 - - WZW 1013,6 8
14.08.2018 07:00:00 16,9 15,2 11 6 22 12 WZW 1012,8 8
14.08.2018 06:00:00 16,7 15,0 13 7 25 14 WZW 1012,3 10
14.08.2018 05:00:00 16,4 14,6 16 9 - - WZW 1012,0 10
14.08.2018 04:00:00 15,9 14,1 15 8 25 14 ZW 1011,5 10
14.08.2018 03:00:00 15,7 13,7 13 7 22 12 ZW 1011,4 10
14.08.2018 02:00:00 16,1 13,9 13 7 - - WZW 1011,2 10
14.08.2018 01:00:00 16,4 14,2 15 8 25 14 WZW 1010,7 10
14.08.2018 00:00:00 16,9 14,7 15 8 25 14 WZW 1010,2 10
13.08.2018 23:00:00 17,5 15,0 16 9 - - WZW 1009,7 10
13.08.2018 22:00:00 17,8 15,6 18 10 29 16 WZW 1009,6 10
13.08.2018 21:00:00 18,0 15,6 11 6 18 10 ZW 1009,0 10
13.08.2018 20:00:00 18,7 15,4 13 7 - - ZW 1008,5 10
13.08.2018 19:00:00 19,2 14,7 15 8 32 18 W 1008,1 10
13.08.2018 18:00:00 18,7 16,2 18 10 32 18 W 1007,9 10
13.08.2018 17:00:00 19,8 16,8 16 9 - - ZW 1007,5 10
13.08.2018 16:00:00 19,7 15,9 16 9 25 14 W 1007,3 10
13.08.2018 15:00:00 18,3 16,1 13 7 29 16 ZW 1007,5 10
13.08.2018 14:00:00 18,3 15,1 16 9 - - W 1007,4 10
13.08.2018 13:00:00 17,4 15,0 22 12 40 21 W 1007,2 4,5
13.08.2018 12:00:00 19,2 15,9 16 9 25 14 ZW 1006,9 10
13.08.2018 11:00:00 18,3 15,8 15 8 - - ZZW 1006,8 10
13.08.2018 10:00:00 18,6 16,2 15 8 22 12 ZZW 1006,7 10
13.08.2018 09:00:00 18,3 15,9 15 8 22 12 ZW 1006,9 10
13.08.2018 08:00:00 17,3 15,7 9 5 - - Z 1006,4 10
13.08.2018 07:00:00 16,8 15,3 4 2 11 6 ZW 1006,5 10
13.08.2018 06:00:00 16,9 15,3 5 3 18 10 ZZO 1006,6 10
13.08.2018 05:00:00 17,8 15,2 9 5 - - Z 1007,2 10
13.08.2018 04:00:00 18,3 14,8 8 4 18 10 WNW 1007,0 10
13.08.2018 03:00:00 20,2 13,9 11 6 25 14 W 1008,2 10
13.08.2018 02:00:00 20,4 11,9 8 4 - - ZZW 1008,0 10
13.08.2018 01:00:00 21,4 11,0 8 4 25 14 ZZO 1008,3 10
13.08.2018 00:00:00 21,8 10,1 8 4 11 6 Z 1008,4 10
12.08.2018 23:00:00 22,0 10,4 8 4 - - ZO 1008,8 10
12.08.2018 22:00:00 22,4 11,2 8 4 11 6 ZZO 1009,5 10
12.08.2018 21:00:00 23,6 10,9 8 4 18 10 Z 1009,7 10
12.08.2018 20:00:00 25,4 10,6 8 4 - - ZZW 1009,9 10
12.08.2018 19:00:00 26,3 9,7 11 6 29 16 Z 1010,5 10
12.08.2018 18:00:00 27,0 9,2 15 8 32 18 Z 1011,1 10
12.08.2018 17:00:00 27,2 9,7 11 6 - - ZZW 1011,8 10
12.08.2018 16:00:00 26,6 8,6 11 6 29 16 ZZW 1012,7 30
12.08.2018 15:00:00 26,6 8,4 13 7 29 16 ZZW 1013,6 10
12.08.2018 14:00:00 26,0 7,2 16 9 - - ZZW 1014,4 10
12.08.2018 13:00:00 25,5 6,7 16 9 36 19 ZZW 1015,1 10
12.08.2018 12:00:00 23,8 7,7 21 11 32 18 Z 1015,8 10
12.08.2018 11:00:00 22,7 8,7 22 12 - - Z 1016,0 10
12.08.2018 10:00:00 20,2 10,4 18 10 29 16 Z 1016,5 10
12.08.2018 09:00:00 17,8 9,7 16 9 29 16 Z 1016,9 10
12.08.2018 08:00:00 16,4 8,8 15 8 - - Z 1017,1 10
12.08.2018 07:00:00 15,5 8,3 13 7 18 10 Z 1017,5 10
12.08.2018 06:00:00 15,4 7,7 11 6 14 8 Z 1017,8 50
12.08.2018 05:00:00 14,9 7,6 11 6 - - Z 1018,6 10
12.08.2018 04:00:00 14,7 8,5 11 6 14 8 Z 1019,2 10
12.08.2018 03:00:00 14,0 8,9 9 5 11 6 Z 1019,8 10
12.08.2018 02:00:00 14,0 9,4 9 5 - - Z 1020,4 10
12.08.2018 01:00:00 14,2 9,3 9 5 11 6 Z 1021,1 10
12.08.2018 00:00:00 14,3 9,5 9 5 11 6 Z 1021,4 10
11.08.2018 23:00:00 14,4 9,7 5 3 - - ZZO 1021,7 10
11.08.2018 22:00:00 15,7 8,6 5 3 7 4 ZZO 1022,0 10
11.08.2018 21:00:00 18,1 7,0 4 2 14 8 - 1022,2 10
11.08.2018 20:00:00 20,3 7,5 9 5 - - W 1022,2 10
11.08.2018 19:00:00 20,8 7,0 8 4 25 14 W 1022,6 10
11.08.2018 18:00:00 20,9 6,3 9 5 36 19 W 1022,8 10
11.08.2018 17:00:00 20,7 5,8 11 6 - - W 1023,2 10
11.08.2018 16:00:00 21,5 7,2 13 7 25 14 WZW 1023,6 10
11.08.2018 15:00:00 20,8 7,3 13 7 32 18 W 1023,9 10
11.08.2018 14:00:00 19,5 7,5 11 6 - - W 1024,2 25
11.08.2018 13:00:00 18,6 7,8 11 6 29 16 W 1024,3 10
11.08.2018 12:00:00 18,7 7,6 16 9 25 14 W 1024,3 10
11.08.2018 11:00:00 17,4 9,4 15 8 - - WZW 1024,3 10
11.08.2018 10:00:00 16,6 10,9 13 7 22 12 WZW 1024,2 10
11.08.2018 09:00:00 15,0 11,7 11 6 18 10 WZW 1023,8 10
11.08.2018 08:00:00 13,5 11,3 11 6 - - ZW 1023,1 10
11.08.2018 07:00:00 12,5 10,9 9 5 18 10 ZW 1022,7 10
11.08.2018 06:00:00 12,5 10,9 11 6 18 10 ZW 1022,2 10
11.08.2018 05:00:00 12,8 11,1 13 7 - - ZW 1022,1 10
11.08.2018 04:00:00 14,1 12,1 13 7 22 12 WZW 1021,5 10
11.08.2018 03:00:00 14,3 12,0 15 8 29 16 WZW 1021,5 10
11.08.2018 02:00:00 14,7 12,4 15 8 - - W 1021,5 10
11.08.2018 01:00:00 15,0 12,7 18 10 32 18 ZW 1021,3 10
11.08.2018 00:00:00 15,9 11,7 18 10 36 19 W 1021,1 10
10.08.2018 23:00:00 18,1 9,2 16 9 - - WZW 1020,6 10
10.08.2018 22:00:00 19,7 7,7 13 7 29 16 ZW 1020,3 10
10.08.2018 21:00:00 20,1 7,3 16 9 36 19 ZZW 1020,3 10
10.08.2018 20:00:00 20,5 6,5 22 12 - - ZZW 1020,1 10
10.08.2018 19:00:00 21,3 5,3 24 13 43 23 ZW 1020,5 10
10.08.2018 18:00:00 22,0 5,9 26 14 43 23 ZW 1020,8 10
10.08.2018 17:00:00 21,1 6,3 24 13 - - ZW 1021,1 10
10.08.2018 16:00:00 22,6 7,6 24 13 43 23 ZW 1021,5 10
10.08.2018 15:00:00 19,9 7,7 24 13 43 23 ZW 1022,0 10
10.08.2018 14:00:00 20,4 7,7 22 12 - - ZW 1022,2 10
10.08.2018 13:00:00 19,8 9,1 24 13 40 21 WZW 1022,4 10
10.08.2018 12:00:00 18,9 8,3 28 15 40 21 ZZW 1022,4 10
10.08.2018 11:00:00 17,7 10,1 22 12 - - ZW 1022,3 10
10.08.2018 10:00:00 16,8 11,2 21 11 32 18 ZW 1022,2 10
10.08.2018 09:00:00 15,2 11,2 18 10 36 19 ZW 1021,7 10
10.08.2018 08:00:00 13,6 11,2 21 11 - - ZW 1021,3 10
10.08.2018 07:00:00 12,5 10,7 15 8 22 12 ZZW 1020,7 10
10.08.2018 06:00:00 12,7 10,9 16 9 29 16 ZW 1020,2 10
10.08.2018 05:00:00 12,6 11,1 13 7 - - ZZW 1020,1 10
10.08.2018 04:00:00 12,9 11,6 11 6 25 14 ZZW 1019,8 10
10.08.2018 03:00:00 13,2 11,5 15 8 29 16 ZW 1019,6 10
10.08.2018 02:00:00 13,6 11,9 16 9 - - WZW 1018,9 10
10.08.2018 01:00:00 14,1 12,3 18 10 36 19 WZW 1018,5 10
10.08.2018 00:00:00 14,7 12,5 22 12 43 23 W 1017,2 10
09.08.2018 23:00:00 14,9 13,2 26 14 - - W 1016,0 10
09.08.2018 22:00:00 15,1 13,2 28 15 54 29 WZW 1014,7 10
09.08.2018 21:00:00 15,8 12,8 29 16 54 29 W 1012,8 10
09.08.2018 20:00:00 17,4 13,9 37 20 - - WZW 1011,0 10
09.08.2018 19:00:00 19,2 15,0 29 16 61 33 ZW 1009,8 30
09.08.2018 18:00:00 20,4 16,3 29 16 54 29 ZW 1008,0 10
09.08.2018 17:00:00 22,4 18,1 21 11 - - ZZW 1006,9 10
09.08.2018 16:00:00 21,7 18,5 11 6 25 14 ZO 1007,0 6
09.08.2018 15:00:00 19,9 17,6 15 8 22 12 ZO 1007,7 8
09.08.2018 14:00:00 19,5 17,0 9 5 - - O 1008,2 8
09.08.2018 13:00:00 19,3 16,6 11 6 29 16 O 1008,4 8
09.08.2018 12:00:00 19,0 15,6 15 8 32 18 O 1009,3 8
09.08.2018 11:00:00 19,1 15,0 18 10 - - O 1010,2 10
09.08.2018 10:00:00 17,1 14,0 11 6 18 10 O 1011,5 8
09.08.2018 09:00:00 16,9 13,0 8 4 11 6 O 1012,1 10
09.08.2018 08:00:00 16,4 12,9 4 2 - - - 1012,7 10
09.08.2018 07:00:00 15,2 12,4 5 3 11 6 ONO 1013,2 10
09.08.2018 06:00:00 14,5 11,5 4 2 7 4 - 1013,8 10
09.08.2018 05:00:00 14,4 11,1 8 4 - - O 1013,8 10
09.08.2018 04:00:00 13,6 11,2 5 3 11 6 O 1014,5 10
09.08.2018 03:00:00 14,7 11,2 5 3 11 6 ZO 1015,0 10
09.08.2018 02:00:00 13,7 11,4 8 4 - - ZO 1015,6 10
09.08.2018 01:00:00 15,0 11,4 8 4 7 4 ZO 1015,7 10
09.08.2018 00:00:00 15,2 11,9 5 3 7 4 ZO 1015,9 10
08.08.2018 23:00:00 16,3 10,9 2 1 - - - 1016,0 10
08.08.2018 22:00:00 17,8 10,8 2 1 11 6 - 1015,8 10
08.08.2018 21:00:00 19,9 10,2 8 4 22 12 WNW 1015,2 10
08.08.2018 20:00:00 21,4 9,8 11 6 - - WNW 1015,2 10
08.08.2018 19:00:00 22,5 9,8 15 8 29 16 W 1015,0 10

tt = temperatuur
td = dauwpunt
ff = windsnelheid
fx = windstoten
dd = windrichting
ppp = luchtdruk
vv = zicht

Weerstations in de omgeving